When you browse on this site, cookies collect data to enhance your experience and personalize the content and advertising you see.
Visit our Privacy Policy to learn more. By continuing to use the site, you agree to this use of cookies and data.
  • In United Kingdom
  • List of Countries
  • For 7 days
  • Water Temperature
  • Weather Map
  • Weather Widgets
  • user-avatar
    Login

    Hourly Weather Sevan

    Today, 28 February, Friday

    Time Temperature Precipitation Wind Pressure Humidity
    00:00 -1°C° 0 mm 2 mps 640 mmHg 46%
    01:00 -1°C° 0 mm 2 mps 639 mmHg 47%
    02:00 -1°C° 0 mm 2 mps 639 mmHg 47%
    03:00 -1°C° 0 mm 2 mps 638 mmHg 47%
    04:00 -2°C° 0 mm 2 mps 638 mmHg 47%
    05:00 -2°C° 0 mm 2 mps 637 mmHg 47%
    06:00 -2°C° 0 mm 2 mps 637 mmHg 47%
    07:00 -1°C° 0 mm 2 mps 638 mmHg 49%
    08:00 +1°C° 0 mm 2 mps 638 mmHg 51%
    09:00 +2°C° 0 mm 2 mps 638 mmHg 54%
    10:00 +3°C° 0 mm 2 mps 638 mmHg 55%
    11:00 +4°C° 0 mm 2 mps 638 mmHg 56%
    12:00 +4°C° 0 mm 2 mps 638 mmHg 57%
    13:00 +5°C° 0 mm 2 mps 638 mmHg 57%
    14:00 +5°C° 0 mm 2 mps 637 mmHg 56%
    15:00 +5°C° 0 mm 2 mps 637 mmHg 55%
    16:00 +4°C° 0 mm 2 mps 637 mmHg 55%
    17:00 +4°C° 0 mm 1 mps 637 mmHg 56%
    18:00 +3°C° 0 mm 1 mps 637 mmHg 56%
    19:00 +2°C° 0 mm 1 mps 637 mmHg 58%
    20:00 +1°C° 0 mm 2 mps 637 mmHg 59%
    21:00 -1°C° 0 mm 2 mps 637 mmHg 61%
    22:00 -1°C° 0 mm 2 mps 637 mmHg 62%
    23:00 -1°C° 0 mm 2 mps 637 mmHg 64%

    Tomorrow, 29 February, Saturday

    Time Temperature Precipitation Wind Pressure Humidity
    00:00 -1°C° 0 mm 2 mps 636 mmHg 65%
    01:00 -1°C° 0 mm 2 mps 636 mmHg 66%
    02:00 -1°C° 0 mm 2 mps 636 mmHg 67%
    03:00 +1°C° 0 mm 1 mps 636 mmHg 68%
    04:00 +1°C° 0 mm 1 mps 636 mmHg 69%
    05:00 +2°C° 0 mm 1 mps 636 mmHg 69%
    06:00 +2°C° 0 mm 1 mps 636 mmHg 70%
    07:00 +3°C° 0 mm 1 mps 636 mmHg 71%
    08:00 +4°C° 0 mm 1 mps 637 mmHg 71%
    09:00 +5°C° 0 mm 1 mps 637 mmHg 72%
    10:00 +5°C° 0 mm 1 mps 636 mmHg 72%
    11:00 +6°C° 0 mm 1 mps 636 mmHg 73%
    12:00 +6°C° 0 mm 1 mps 636 mmHg 73%
    13:00 +6°C° 0 mm 1 mps 635 mmHg 73%
    14:00 +6°C° 0 mm 1 mps 635 mmHg 73%
    15:00 +7°C° 0 mm 1 mps 634 mmHg 73%
    16:00 +6°C° 0.1 mm 1 mps 634 mmHg 74%
    17:00 +4°C° 0.1 mm 2 mps 634 mmHg 75%
    18:00 +3°C° 0.1 mm 2 mps 634 mmHg 76%
    19:00 +3°C° 0.3 mm 2 mps 634 mmHg 79%
    20:00 +3°C° 0.3 mm 2 mps 634 mmHg 82%
    21:00 +3°C° 0.3 mm 2 mps 634 mmHg 85%
    22:00 +3°C° 0.7 mm 2 mps 634 mmHg 87%
    23:00 +3°C° 0.7 mm 2 mps 634 mmHg 88%

    Day after tomorrow, 1 March, Sunday

    Time Temperature Precipitation Wind Pressure Humidity
    00:00 +3°C° 0.7 mm 2 mps 634 mmHg 90%
    01:00 +3°C° 0.4 mm 2 mps 634 mmHg 91%
    02:00 +3°C° 0.4 mm 2 mps 633 mmHg 91%
    03:00 +2°C° 0.4 mm 2 mps 633 mmHg 92%
    04:00 +2°C° 0.4 mm 2 mps 633 mmHg 93%
    05:00 +2°C° 0.4 mm 2 mps 633 mmHg 94%
    06:00 +3°C° 0.4 mm 1 mps 634 mmHg 94%
    07:00 +3°C° 0.1 mm 1 mps 634 mmHg 94%
    08:00 +4°C° 0.1 mm 1 mps 634 mmHg 93%
    09:00 +4°C° 0.1 mm 1 mps 635 mmHg 93%
    10:00 +5°C° 0.2 mm 1 mps 635 mmHg 91%
    11:00 +5°C° 0.2 mm 1 mps 635 mmHg 89%
    12:00 +6°C° 0.2 mm 1 mps 635 mmHg 87%
    13:00 +6°C° 0.2 mm 1 mps 635 mmHg 86%
    14:00 +6°C° 0.2 mm 1 mps 634 mmHg 85%
    15:00 +6°C° 0.2 mm 1 mps 634 mmHg 84%
    16:00 +5°C° 0.2 mm 2 mps 634 mmHg 83%
    17:00 +4°C° 0.2 mm 2 mps 635 mmHg 83%
    18:00 +3°C° 0.2 mm 3 mps 635 mmHg 82%
    19:00 +2°C° 0.1 mm 3 mps 635 mmHg 81%
    20:00 +1°C° 0.1 mm 4 mps 636 mmHg 79%
    21:00 0°C° 0.1 mm 4 mps 636 mmHg 77%
    22:00 0°C° 0 mm 4 mps 636 mmHg 78%
    23:00 -1°C° 0 mm 4 mps 636 mmHg 78%

    2 March, Monday

    Time Temperature Precipitation Wind Pressure Humidity
    00:00 0°C° 0 mm 3 mps 636 mmHg 78%
    01:00 -1°C° 0 mm 3 mps 637 mmHg 79%
    02:00 -1°C° 0 mm 2 mps 637 mmHg 79%
    03:00 -1°C° 0 mm 2 mps 637 mmHg 80%
    04:00 -2°C° 0 mm 2 mps 637 mmHg 82%
    05:00 -2°C° 0 mm 2 mps 638 mmHg 83%
    06:00 -2°C° 0 mm 2 mps 638 mmHg 85%
    07:00 -2°C° 0 mm 2 mps 638 mmHg 84%
    08:00 +1°C° 0 mm 1 mps 639 mmHg 83%
    09:00 +2°C° 0 mm 1 mps 640 mmHg 82%
    10:00 +2°C° 0 mm 1 mps 640 mmHg 80%
    11:00 +3°C° 0 mm 1 mps 640 mmHg 79%
    12:00 +4°C° 0 mm 1 mps 640 mmHg 77%
    13:00 +4°C° 0 mm 1 mps 640 mmHg 76%
    14:00 +5°C° 0 mm 1 mps 640 mmHg 75%
    15:00 +5°C° 0 mm 1 mps 640 mmHg 73%
    16:00 +5°C° 0 mm 1 mps 640 mmHg 74%
    17:00 +4°C° 0 mm 1 mps 640 mmHg 75%
    18:00 +3°C° 0 mm 1 mps 640 mmHg 76%
    19:00 +2°C° 0 mm 1 mps 640 mmHg 77%
    20:00 +2°C° 0 mm 1 mps 641 mmHg 77%
    21:00 +1°C° 0 mm 1 mps 641 mmHg 78%
    22:00 +1°C° 0 mm 1 mps 641 mmHg 78%
    23:00 0°C° 0 mm 1 mps 641 mmHg 78%

    3 March, Tuesday

    Time Temperature Precipitation Wind Pressure Humidity
    00:00 0°C° 0 mm 1 mps 641 mmHg 79%
    01:00 0°C° 0 mm 1 mps 641 mmHg 79%
    02:00 0°C° 0 mm 1 mps 642 mmHg 80%
    03:00 0°C° 0 mm 1 mps 642 mmHg 81%
    04:00 0°C° 0 mm 1 mps 642 mmHg 82%
    05:00 0°C° 0 mm 1 mps 642 mmHg 82%
    06:00 0°C° 0 mm 1 mps 642 mmHg 83%
    07:00 +1°C° 0 mm 1 mps 643 mmHg 82%
    08:00 +2°C° 0 mm 1 mps 643 mmHg 80%
    09:00 +3°C° 0 mm 1 mps 644 mmHg 79%
    10:00 +4°C° 0 mm 1 mps 643 mmHg 78%
    11:00 +4°C° 0 mm 1 mps 643 mmHg 78%
    12:00 +5°C° 0 mm 1 mps 643 mmHg 77%
    13:00 +5°C° 0 mm 1 mps 643 mmHg 76%
    14:00 +5°C° 0 mm 1 mps 642 mmHg 75%
    15:00 +6°C° 0 mm 1 mps 642 mmHg 74%
    16:00 +5°C° 0 mm 1 mps 642 mmHg 74%
    17:00 +4°C° 0 mm 1 mps 642 mmHg 74%
    18:00 +3°C° 0 mm 1 mps 642 mmHg 74%
    19:00 +3°C° 0 mm 1 mps 642 mmHg 71%
    20:00 +2°C° 0 mm 1 mps 643 mmHg 69%
    21:00 +2°C° 0 mm 1 mps 643 mmHg 66%
    22:00 +2°C° 0 mm 1 mps 643 mmHg 64%
    23:00 +1°C° 0 mm 1 mps 643 mmHg 63%

    4 March, Wednesday

    Time Temperature Precipitation Wind Pressure Humidity
    00:00 +1°C° 0 mm 1 mps 643 mmHg 61%
    01:00 +1°C° 0 mm 1 mps 643 mmHg 60%
    02:00 +1°C° 0 mm 1 mps 643 mmHg 59%
    03:00 +1°C° 0 mm 1 mps 643 mmHg 58%
    04:00 0°C° 0 mm 1 mps 643 mmHg 57%
    05:00 0°C° 0 mm 1 mps 643 mmHg 57%
    06:00 0°C° 0 mm 1 mps 643 mmHg 57%
    07:00 +1°C° 0 mm 1 mps 643 mmHg 57%
    08:00 +2°C° 0 mm 0 mps 644 mmHg 58%
    09:00 +3°C° 0 mm 0 mps 644 mmHg 59%
    10:00 +4°C° 0 mm 0 mps 644 mmHg 60%
    11:00 +6°C° 0 mm 1 mps 644 mmHg 62%
    12:00 +6°C° 0 mm 1 mps 643 mmHg 64%
    13:00 +7°C° 0 mm 1 mps 643 mmHg 64%
    14:00 +7°C° 0 mm 1 mps 643 mmHg 63%
    15:00 +6°C° 0 mm 0 mps 642 mmHg 63%
    16:00 +6°C° 0 mm 1 mps 642 mmHg 62%
    17:00 +5°C° 0 mm 1 mps 642 mmHg 61%
    18:00 +4°C° 0 mm 1 mps 642 mmHg 60%
    19:00 +4°C° 0 mm 1 mps 642 mmHg 57%
    20:00 +3°C° 0 mm 1 mps 642 mmHg 55%
    21:00 +3°C° 0 mm 1 mps 642 mmHg 52%
    22:00 +3°C° 0 mm 1 mps 642 mmHg 52%
    23:00 +3°C° 0 mm 1 mps 642 mmHg 52%
    Show more